Location: Wellington
(41.3000°S, 174.7830°E)
Time: 15:50:22
(UTC+13:00)

Cosmos 1356 - Pass Details

Date: 24 January 2019
Orbit: 448 x 452 km, 81.1° (Epoch: 19 February)

Event Time Altitude Azimuth Distance (km) Brightness Sun altitude
Exits shadow 22:12:21 25° 61° (ENE) 966 4.5 -13.7°
Maximum altitude 22:13:12 28° 87° (E) 895 4.5 -13.8°
Drops below altitude 10° 22:16:15 10° 147° (SSE) 1,614 6.3 -14.3°
Sets 22:18:31 0° 159° (SSE) 2,497 7.5 -14.6°
